FW3102 Weather Reports


Display with metric or nautical units.
time (UTC)temp
F
wind
direction
speed
MPH
gust
MPH
rain 1hr
in
rain 24hr
in
rain mn
in
humidity
%
barometer
mb
20260506121528 32 138 0.0 1.0 0.00 0.00 0.00 62 1011.4
20260506120047 32 132 0.0 1.0 0.00 0.00 0.00 62 1011.5
20260506114524 32 136 0.0 2.0 0.00 0.00 0.00 62 1011.7
20260506113022 32 133 0.0 1.0 0.00 0.00 0.00 62 1011.8
20260506111520 32 127 0.0 1.0 0.00 0.00 0.00 62 1012.1
20260506110018 32 134 0.0 1.0 0.00 0.00 0.00 62 1012.2
20260506104526 32 129 0.0 1.0 0.00 0.00 0.00 62 1012.4
20260506103033 32 141 0.0 1.0 0.00 0.00 0.00 61 1012.6
20260506101510 33 157 0.0 1.0 0.00 0.00 0.00 60 1012.7
20260506100009 33 136 0.0 2.0 0.00 0.00 0.00 60 1012.7
20260506094505 34 142 0.0 2.0 0.00 0.00 0.00 59 1013.0
20260506093002 34 174 0.0 1.0 0.00 0.00 0.00 59 1013.1
20260506091502 34 205 0.0 3.0 0.00 0.00 0.00 59 1013.4
20260506090104 34 120 0.0 3.0 0.00 0.00 0.00 59 1013.6
20260506084626 35 152 0.0 1.0 0.00 0.00 0.00 58 1013.6
20260506083054 35 134 0.0 2.0 0.00 0.00 0.00 57 1013.8
20260506081556 35 131 0.0 2.0 0.00 0.00 0.00 57 1014.0
20260506073044 36 153 0.0 4.0 0.00 0.00 0.00 55 1014.3
20260506071542 36 153 0.0 3.0 0.00 0.00 0.00 56 1014.6
20260506061530 38 135 0.0 4.0 0.00 0.00 0.00 55 1015.1
20260506044521 41 180 0.0 3.0 0.00 0.00 0.00 50 1015.8
20260506043019 42 119 0.0 2.0 0.00 0.00 0.00 49 1015.9
20260506041517 43 116 0.0 3.0 0.00 0.00 0.00 48 1016.3
20260506040017 44 42 0.0 1.0 0.00 0.00 0.00 48 1016.2
20260506034516 44 334 0.0 1.0 0.00 0.00 0.00 46 1016.2
20260506033015 45 141 0.0 1.0 0.00 0.00 0.00 45 1016.2
20260506031514 46 39 0.0 1.0 0.00 0.00 0.00 44 1016.3
20260506030015 47 37 0.0 1.0 0.00 0.00 0.00 42 1016.4
20260506024513 48 210 0.0 2.0 0.00 0.00 0.00 41 1016.4
20260506023016 49 37 0.0 1.0 0.00 0.00 0.00 39 1016.3
20260506021511 50 23 0.0 1.0 0.00 0.00 0.00 37 1016.4
20260506020010 51 23 0.0 1.0 0.00 0.00 0.00 38 1016.6
20260506014509 52 30 0.0 1.0 0.00 0.00 0.00 36 1016.6
20260506013007 52 113 0.0 3.0 0.00 0.00 0.00 36 1016.6
20260506011507 52 30 1.0 4.0 0.00 0.00 0.00 35 1016.6
20260506010010 53 36 1.0 4.0 0.00 0.00 0.00 36 1016.7
20260506004505 52 43 1.0 5.0 0.00 0.00 0.00 35 1016.9
20260506003002 53 39 1.0 5.0 0.00 0.00 0.00 34 1017.2
20260506001600 53 188 0.0 3.0 0.00 0.00 0.00 36 1017.2
20260506000100 53 317 1.0 4.0 0.00 0.00 0.00 34 1017.4
20260505234555 53 35 1.0 4.0 0.00 0.00 0.00 34 1017.7
20260505233051 52 84 1.0 3.0 0.00 0.00 0.00 34 1017.7
20260505231605 53 27 1.0 5.0 0.00 0.00 0.00 35 1017.9
20260505230048 53 92 1.0 5.0 0.00 0.00 0.00 36 1018.3
20260505224543 52 79 1.0 3.0 0.00 0.00 0.00 35 1018.5
20260505223042 52 58 0.0 6.0 0.00 0.00 0.00 37 1018.5
20260505221538 52 52 1.0 8.0 0.00 0.00 0.00 36 1018.6
20260505220036 52 325 2.0 5.0 0.00 0.00 0.00 36 1018.9
20260505214548 52 84 1.0 5.0 0.00 0.00 0.00 37 1019.0
20260505213037 52 34 0.0 4.0 0.00 0.00 0.00 37 1019.1
20260505211528 50 37 1.0 7.0 0.00 0.00 0.00 39 1019.4
20260505210028 51 355 2.0 6.0 0.00 0.00 0.00 38 1019.6
20260505204526 51 44 2.0 8.0 0.00 0.00 0.00 39 1019.6
20260505203029 51 305 0.0 4.0 0.00 0.00 0.00 40 1019.7
20260505201530 50 135 0.0 6.0 0.00 0.00 0.00 41 1020.0
20260505200021 50 300 1.0 6.0 0.00 0.00 0.00 41 1020.2
20260505194517 50 21 2.0 5.0 0.00 0.00 0.00 41 1020.3
20260505193015 48 38 2.0 5.0 0.00 0.00 0.00 42 1020.4
20260505191517 49 293 1.0 7.0 0.00 0.00 0.00 42 1020.6
20260505190013 48 349 3.0 8.0 0.00 0.00 0.00 44 1020.6
20260505184510 48 85 3.0 7.0 0.00 0.00 0.00 44 1020.7
20260505183012 47 281 2.0 10.0 0.00 0.00 0.00 45 1021.0
20260505181504 47 120 1.0 4.0 0.00 0.00 0.00 46 1020.9
20260505180002 45 340 1.0 5.0 0.00 0.00 0.00 48 1020.8
20260505174605 45 36 1.0 6.0 0.00 0.00 0.00 48 1021.0
20260505173100 45 53 2.0 5.0 0.00 0.00 0.00 48 1021.0
20260505171558 45 31 0.0 5.0 0.00 0.00 0.00 49 1021.2
20260505170110 43 58 0.0 5.0 0.00 0.00 0.00 49 1021.3
20260505164555 44 75 1.0 6.0 0.00 0.00 0.00 49 1021.2
20260505163053 43 27 1.0 5.0 0.00 0.00 0.00 50 1021.4
20260505161612 43 81 0.0 3.0 0.00 0.00 0.00 51 1021.4
20260505153056 41 319 0.0 3.0 0.00 0.00 0.00 56 1021.3
20260505151557 40 37 0.0 2.0 0.00 0.00 0.00 58 1021.4
20260505124528 27 103 0.0 0.0 0.00 0.00 0.00 83 1021.2
20260505123027 27 103 0.0 0.0 0.00 0.00 0.00 82 1021.0